Shekhupura, Pakistan
Current Conditions -  °F | °C
As of 8:25 AM on Sunday 23 Nov 2014 (Local Time) from OPLA Reporting Station
Haze Haze  
Wind Chill: 50°   Ceiling: Unl
Heat Index: 50°   Visibility: 0.62mi
Dew Point: 46°   Wind: 0mph
Humidity: 87%   Direction: NA
Pressure: NA   Gusts: NA
Location:  31.72°N, 73.98°E
Report Text: OPLA 230325Z 00000KT 1000 BR NSC 10/08 Q1017/A30.04
Loading
Personal Weather Stations






























Interactive Weather Map New forecast layout! Learn more

10-Day Weather Forecast

Advertisements
Track Severe Weather on mobile